SV2MJJ Weather Reports


time (UTC)temp
F
wind
direction
speed
knots
gust
knots
rain 1hr
in
rain 24hr
in
rain mn
in
humidity
%
barometer
mb
20260503225705 50 165 5.2 10.4 0.00 0.00 0.00 59 1014.3
20260503225514 50 213 4.3 10.4 0.00 0.00 0.00 59 1014.3
20260503225420 50 232 4.3 9.6 0.00 0.00 0.00 58 1014.3
20260503225412 50 213 4.3 9.6 0.00 0.00 0.00 58 1014.4
20260503224906 50 258 5.2 9.6 0.00 0.00 0.00 58 1014.3
20260503224813 50 241 5.2 9.6 0.00 0.00 0.00 58 1014.3
20260503224705 50 246 5.2 9.6 0.00 0.00 0.00 58 1014.3
20260503224506 50 238 5.2 9.6 0.00 0.00 0.00 59 1014.3
20260503224320 50 226 5.2 9.6 0.00 0.00 0.00 59 1014.4
20260503224305 50 225 4.3 9.6 0.00 0.00 0.00 59 1014.4
20260503224105 50 236 5.2 9.6 0.00 0.00 0.00 59 1014.4
20260503223904 50 265 5.2 9.6 0.00 0.00 0.00 59 1014.3
20260503223811 50 207 5.2 9.6 0.00 0.00 0.00 59 1014.3
20260503223706 50 196 4.3 9.6 0.00 0.00 0.00 59 1014.3
20260503223505 50 164 4.3 9.6 0.00 0.00 0.00 58 1014.4
20260503223322 50 239 3.5 8.7 0.00 0.00 0.00 58 1014.4
20260503223305 50 240 3.5 8.7 0.00 0.00 0.00 58 1014.4
20260503223151 51 228 3.5 8.7 0.00 0.00 0.00 58 1014.4
20260503223054 51 244 3.5 9.6 0.00 0.00 0.00 58 1014.4
20260503222955 51 221 3.5 9.6 0.00 0.00 0.00 58 1014.5
20260503222924 50 223 4.3 9.6 0.00 0.00 0.00 58 1014.4
20260503222526 50 209 4.3 9.6 0.00 0.00 0.00 59 1014.5
20260503222106 50 217 4.3 9.6 0.00 0.00 0.00 59 1014.5
20260503221905 50 213 4.3 8.7 0.00 0.00 0.00 59 1014.4
20260503221806 50 248 4.3 8.7 0.00 0.00 0.00 59 1014.5
20260503221705 50 273 4.3 8.7 0.00 0.00 0.00 60 1014.5
20260503221519 50 255 4.3 8.7 0.00 0.00 0.00 59 1014.5
20260503221423 50 258 4.3 8.7 0.00 0.00 0.00 59 1014.3
20260503221415 50 265 4.3 8.7 0.00 0.00 0.00 59 1014.3
20260503220905 51 224 4.3 8.7 0.00 0.00 0.00 59 1014.4
20260503220806 51 228 4.3 8.7 0.00 0.00 0.00 59 1014.5
20260503220707 51 253 4.3 8.7 0.00 0.00 0.00 59 1014.5
20260503220504 51 275 3.5 7.0 0.00 0.00 0.00 58 1014.4
20260503220315 51 263 3.5 7.0 0.00 0.00 0.00 58 1014.4
20260503220303 51 269 3.5 7.0 0.00 0.00 0.00 58 1014.4
20260503215904 51 225 4.3 7.8 0.00 0.00 0.00 58 1014.4
20260503215810 51 239 4.3 7.8 0.00 0.00 0.00 57 1014.5
20260503215712 51 261 4.3 7.8 0.00 0.00 0.00 57 1014.5
20260503215611 51 256 5.2 9.6 0.00 0.00 0.00 56 1014.4
20260503215523 51 241 4.3 9.6 0.00 0.00 0.00 56 1014.4
20260503215102 52 227 3.5 9.6 0.00 0.00 0.00 56 1014.5
20260503214921 52 205 2.6 9.6 0.00 0.00 0.00 56 1014.5
20260503214850 52 240 1.7 9.6 0.00 0.00 0.00 56 1014.5
20260503214821 52 232 1.7 9.6 0.00 0.00 0.00 55 1014.4
20260503214715 52 233 0.9 7.8 0.00 0.00 0.00 56 1014.4
20260503214410 52 250 0.0 4.3 0.00 0.00 0.00 55 1014.4
20260503213902 52 238 0.9 6.1 0.00 0.00 0.00 55 1014.3
20260503213804 52 223 0.9 6.1 0.00 0.00 0.00 55 1014.3
20260503213702 52 258 1.7 6.1 0.00 0.00 0.00 55 1014.3
20260503213539 52 190 1.7 6.1 0.00 0.00 0.00 54 1014.4
20260503213451 52 197 1.7 6.1 0.00 0.00 0.00 54 1014.2
20260503213444 52 230 1.7 6.1 0.00 0.00 0.00 54 1014.2
20260503213352 52 228 1.7 6.1 0.00 0.00 0.00 55 1014.4
20260503213016 52 259 1.7 7.0 0.00 0.00 0.00 55 1014.3
20260503212945 52 266 1.7 7.0 0.00 0.00 0.00 55 1014.3
20260503212519 52 223 1.7 7.0 0.00 0.00 0.00 55 1014.2
20260503212100 52 232 1.7 7.0 0.00 0.00 0.00 55 1014.3
20260503211857 52 280 2.6 7.0 0.00 0.00 0.00 56 1014.3
20260503211804 52 212 1.7 6.1 0.00 0.00 0.00 56 1014.2
20260503211715 52 224 2.6 6.1 0.00 0.00 0.00 56 1014.2
20260503211610 51 228 2.6 7.8 0.00 0.00 0.00 57 1014.2
20260503211258 51 219 3.5 7.8 0.00 0.00 0.00 57 1014.2
20260503211058 51 260 2.6 7.8 0.00 0.00 0.00 57 1014.1
20260503210859 51 282 2.6 7.8 0.00 0.00 0.00 57 1014.1
20260503210805 51 260 3.5 7.8 0.00 0.00 0.00 57 1014.2
20260503210715 51 281 2.6 7.8 0.00 0.00 0.00 57 1014.2
20260503210611 51 261 2.6 7.0 0.00 0.00 0.00 58 1014.2
20260503210257 51 286 1.7 7.0 0.00 0.00 0.00 57 1014.2
20260503210105 52 207 1.7 7.0 0.00 0.00 0.00 57 1014.1
20260503205854 52 219 0.9 7.0 0.00 0.00 0.00 57 1014.1
20260503205804 52 254 0.9 7.0 0.00 0.00 0.00 57 1014.1
20260503205655 52 228 0.9 7.0 0.00 0.00 0.00 57 1014.1
20260503205454 52 254 0.0 3.5 0.00 0.00 0.00 56 1014.1
20260503205310 52 261 0.0 2.6 0.00 0.00 0.00 56 1014.1
20260503205254 53 261 0.0 2.6 0.00 0.00 0.00 56 1014.1
20260503205054 53 255 0.0 0.0 0.00 0.00 0.00 55 1014.1
20260503204849 53 253 0.0 0.0 0.00 0.00 0.00 55 1014.2
20260503204805 53 258 0.0 0.0 0.00 0.00 0.00 55 1014.2
20260503204651 53 252 0.0 0.0 0.00 0.00 0.00 55 1014.1
20260503204449 53 227 0.0 0.0 0.00 0.00 0.00 55 1014.1
20260503204305 53 221 0.0 0.0 0.00 0.00 0.00 54 1014.1
20260503204248 53 253 0.0 0.0 0.00 0.00 0.00 54 1014.1
20260503204051 53 224 0.0 0.0 0.00 0.00 0.00 54 1014.1
20260503203846 53 255 0.0 0.0 0.00 0.00 0.00 54 1014.2
20260503203803 53 262 0.0 0.0 0.00 0.00 0.00 54 1014.2
20260503203647 53 293 0.0 0.0 0.00 0.00 0.00 53 1014.2
20260503203442 53 325 0.0 0.0 0.00 0.00 0.00 53 1014.1
20260503203354 53 325 0.0 0.0 0.00 0.00 0.00 52 1014.1
20260503203341 53 325 0.0 0.0 0.00 0.00 0.00 52 1014.1
20260503202838 54 325 0.0 0.0 0.00 0.00 0.00 52 1014.2
20260503202804 54 325 0.0 0.0 0.00 0.00 0.00 52 1014.1
20260503202637 54 325 0.0 2.6 0.00 0.00 0.00 52 1014.1
20260503202436 54 321 0.9 5.2 0.00 0.00 0.00 51 1014.2
20260503202304 54 317 0.9 5.2 0.00 0.00 0.00 51 1014.1
20260503202236 54 318 0.9 5.2 0.00 0.00 0.00 51 1014.1
20260503202142 54 307 0.9 5.2 0.00 0.00 0.00 50 1014.1
20260503201806 54 225 1.7 6.1 0.00 0.00 0.00 50 1013.9
20260503201639 54 263 2.6 7.8 0.00 0.00 0.00 50 1014.0
20260503201536 54 227 2.6 8.7 0.00 0.00 0.00 50 1014.0
20260503201454 54 282 3.5 8.7 0.00 0.00 0.00 50 1013.9
20260503201440 54 292 3.5 8.7 0.00 0.00 0.00 50 1013.9
20260503201349 54 286 4.3 10.4 0.00 0.00 0.00 49 1014.0
20260503200632 54 176 5.2 10.4 0.00 0.00 0.00 49 1013.8
20260503200433 54 228 5.2 10.4 0.00 0.00 0.00 49 1013.8
20260503200302 54 239 5.2 10.4 0.00 0.00 0.00 49 1013.8
20260503200234 54 205 5.2 10.4 0.00 0.00 0.00 49 1013.8
20260503200033 54 248 5.2 10.4 0.00 0.00 0.00 49 1013.7
20260503195835 54 221 6.1 9.6 0.00 0.00 0.00 49 1013.7
20260503195804 54 201 6.1 9.6 0.00 0.00 0.00 49 1013.7
20260503195707 54 205 6.1 9.6 0.00 0.00 0.00 49 1013.7
20260503195608 54 221 5.2 9.6 0.00 0.00 0.00 49 1013.7
20260503195456 54 231 5.2 9.6 0.00 0.00 0.00 49 1013.8
20260503195431 54 236 5.2 9.6 0.00 0.00 0.00 49 1013.8
20260503195032 54 226 5.2 9.6 0.00 0.00 0.00 49 1013.7
20260503194649 54 235 4.3 9.6 0.00 0.00 0.00 49 1013.7
20260503194547 54 246 5.2 9.6 0.00 0.00 0.00 50 1013.7
20260503194507 54 238 4.3 9.6 0.00 0.00 0.00 50 1013.7
20260503194033 54 209 5.2 9.6 0.00 0.00 0.00 50 1013.7
20260503193836 54 221 5.2 9.6 0.00 0.00 0.00 50 1013.6
20260503193806 54 236 5.2 9.6 0.00 0.00 0.00 50 1013.6
20260503193634 54 263 5.2 9.6 0.00 0.00 0.00 50 1013.7
20260503193433 54 218 5.2 9.6 0.00 0.00 0.00 50 1013.7
20260503193304 54 204 6.1 9.6 0.00 0.00 0.00 50 1013.6
20260503193233 54 218 6.1 9.6 0.00 0.00 0.00 50 1013.6
20260503193132 54 248 5.2 8.7 0.00 0.00 0.00 50 1013.6
20260503193033 54 236 5.2 7.8 0.00 0.00 0.00 50 1013.6
20260503192634 54 243 5.2 7.8 0.00 0.00 0.00 50 1013.6
20260503192441 54 259 5.2 7.8 0.00 0.00 0.00 50 1013.6
20260503192356 54 211 5.2 8.7 0.00 0.00 0.00 50 1013.6
20260503192338 54 223 5.2 8.7 0.00 0.00 0.00 50 1013.6
20260503191835 54 221 5.2 8.7 0.00 0.00 0.00 50 1013.5
20260503191803 54 220 6.1 8.7 0.00 0.00 0.00 50 1013.6
20260503191633 54 208 6.1 9.6 0.00 0.00 0.00 50 1013.6
20260503191434 54 222 6.1 9.6 0.00 0.00 0.00 51 1013.6
20260503191304 54 232 6.1 9.6 0.00 0.00 0.00 51 1013.5
20260503191234 54 206 6.1 9.6 0.00 0.00 0.00 51 1013.5
20260503191034 54 242 6.1 9.6 0.00 0.00 0.00 51 1013.6
20260503190850 54 247 6.1 9.6 0.00 0.00 0.00 51 1013.6
20260503190828 54 232 6.1 9.6 0.00 0.00 0.00 51 1013.6
20260503190749 54 248 6.1 9.6 0.00 0.00 0.00 52 1013.6
20260503190644 54 234 6.1 9.6 0.00 0.01 0.00 52 1013.6
20260503190604 54 235 6.1 9.6 0.00 0.01 0.00 52 1013.6
20260503185835 54 234 5.2 9.6 0.00 0.01 0.00 52 1013.5
20260503185803 54 232 5.2 9.6 0.00 0.01 0.00 52 1013.5
20260503185634 54 228 5.2 9.6 0.00 0.01 0.00 52 1013.5
20260503185433 54 228 4.3 9.6 0.00 0.01 0.00 52 1013.5
20260503185304 54 232 4.3 9.6 0.00 0.01 0.00 52 1013.4
20260503185234 54 219 4.3 9.6 0.00 0.01 0.00 52 1013.4
20260503185034 54 235 4.3 9.6 0.00 0.01 0.00 52 1013.5
20260503184835 54 241 4.3 9.6 0.00 0.01 0.00 52 1013.4
20260503184806 54 232 4.3 9.6 0.00 0.01 0.00 52 1013.4
20260503184658 54 250 5.2 8.7 0.00 0.01 0.00 52 1013.4
20260503184554 54 228 6.1 9.6 0.00 0.01 0.00 52 1013.4
20260503184234 54 215 6.1 9.6 0.00 0.01 0.00 52 1013.4
20260503184044 54 223 5.2 9.6 0.00 0.01 0.00 52 1013.4
20260503183945 54 246 5.2 9.6 0.00 0.01 0.00 52 1013.4
20260503183926 54 238 5.2 9.6 0.00 0.01 0.00 52 1013.4
20260503183518 54 240 4.3 8.7 0.00 0.01 0.00 52 1013.4
20260503183432 54 233 4.3 8.7 0.00 0.01 0.00 52 1013.3
20260503183413 54 235 4.3 8.7 0.00 0.01 0.00 52 1013.3
20260503183321 54 174 4.3 8.7 0.00 0.01 0.00 53 1013.4
20260503183221 54 211 5.2 9.6 0.00 0.01 0.00 52 1013.4
20260503183201 54 234 4.3 10.4 0.00 0.01 0.00 52 1013.4
20260503183125 55 246 4.3 10.4 0.00 0.01 0.00 53 1013.3
20260503182741 55 243 5.2 10.4 0.00 0.01 0.00 52 1013.3
20260503181805 55 250 5.2 9.6 0.00 0.01 0.00 52 1013.2
20260503181635 55 201 5.2 9.6 0.00 0.01 0.00 52 1013.3
20260503181433 55 215 4.3 9.6 0.00 0.01 0.00 52 1013.3
20260503181302 55 212 5.2 9.6 0.00 0.01 0.00 52 1013.2
20260503181233 55 215 5.2 9.6 0.00 0.01 0.00 52 1013.2
20260503181032 55 235 5.2 9.6 0.00 0.01 0.00 52 1013.3
20260503180837 55 230 5.2 9.6 0.00 0.01 0.00 52 1013.2
20260503180803 55 201 5.2 9.6 0.00 0.01 0.00 52 1013.2
20260503180633 55 238 5.2 9.6 0.00 0.01 0.00 53 1013.2
20260503180433 55 244 5.2 9.6 0.00 0.01 0.00 52 1013.1
20260503180304 55 246 5.2 9.6 0.00 0.01 0.00 52 1013.1
20260503180234 55 213 5.2 9.6 0.00 0.01 0.00 52 1013.1
20260503180111 56 237 4.3 9.6 0.00 0.01 0.00 52 1013.1
20260503180006 56 249 4.3 9.6 0.00 0.01 0.00 52 1013.2
20260503175948 56 230 4.3 9.6 0.00 0.01 0.00 52 1013.2
20260503175556 56 250 5.2 9.6 0.00 0.01 0.00 52 1013.1
20260503175233 56 254 4.3 9.6 0.00 0.01 0.00 53 1013.2
20260503175032 56 219 5.2 9.6 0.00 0.01 0.00 52 1013.1
20260503174835 56 229 4.3 9.6 0.00 0.01 0.00 52 1013.0
20260503174804 56 221 4.3 9.6 0.00 0.01 0.00 52 1013.0
20260503174633 56 253 4.3 9.6 0.00 0.01 0.00 52 1013.0
20260503174433 56 196 4.3 8.7 0.00 0.01 0.00 52 1013.0
20260503174306 56 188 4.3 8.7 0.00 0.01 0.00 52 1013.0
20260503174236 56 259 4.3 11.3 0.00 0.01 0.00 52 1013.0
20260503174036 57 190 4.3 11.3 0.00 0.01 0.00 52 1012.9
20260503173834 57 197 4.3 11.3 0.00 0.01 0.00 52 1012.9
20260503173806 57 261 4.3 11.3 0.00 0.01 0.00 52 1012.9
20260503173634 57 212 3.5 11.3 0.00 0.01 0.00 52 1012.9
20260503173433 57 207 3.5 11.3 0.00 0.01 0.00 51 1012.9
20260503173303 57 252 2.6 11.3 0.00 0.01 0.00 51 1012.9
20260503173234 57 228 2.6 7.8 0.00 0.01 0.00 51 1012.9
20260503173136 58 235 2.6 7.8 0.00 0.01 0.00 51 1012.9
20260503173033 58 246 1.7 7.8 0.00 0.01 0.00 50 1012.9
20260503172659 58 188 1.7 7.8 0.00 0.01 0.00 50 1013.0
20260503172557 58 236 0.9 6.1 0.00 0.01 0.00 50 1012.9
20260503172232 59 225 0.9 5.2 0.00 0.01 0.00 49 1012.9
20260503172033 59 202 0.0 5.2 0.00 0.01 0.00 49 1012.9
20260503171834 59 248 0.0 4.3 0.00 0.01 0.00 49 1012.9
20260503171804 59 265 0.0 0.0 0.00 0.01 0.00 50 1012.9
20260503171634 60 267 0.0 0.0 0.00 0.01 0.00 50 1012.9
20260503171434 60 266 0.0 0.0 0.00 0.01 0.00 49 1012.9
20260503171303 60 284 0.0 0.0 0.00 0.01 0.00 49 1012.9
20260503171234 60 284 0.0 0.0 0.00 0.01 0.00 49 1012.9
20260503171033 61 284 0.0 0.0 0.00 0.01 0.00 48 1012.8
20260503170932 61 284 0.0 0.0 0.00 0.01 0.00 47 1012.7
20260503170913 61 284 0.0 1.7 0.00 0.01 0.00 47 1012.7
20260503170834 62 292 0.0 1.7 0.00 0.01 0.00 47 1012.7
20260503170745 62 291 0.0 1.7 0.00 0.01 0.00 45 1012.7
20260503170435 62 291 0.0 1.7 0.00 0.01 0.00 44 1012.8
20260503160134 64 20 0.0 3.5 0.00 0.01 0.00 34 1012.5
20260503150835 65 345 0.0 4.3 0.00 0.01 0.00 35 1012.7
20260503150804 65 239 0.0 0.0 0.00 0.01 0.00 35 1012.7
20260503150633 65 234 0.0 0.0 0.00 0.01 0.00 36 1012.7
20260503150435 64 158 0.0 0.0 0.00 0.01 0.00 36 1012.7
20260503150302 64 158 0.0 0.0 0.00 0.01 0.00 36 1012.7
20260503150234 64 158 0.0 0.0 0.00 0.01 0.00 36 1012.7
20260503140234 64 115 0.0 6.1 0.00 0.01 0.00 36 1013.0
20260503131235 63 90 0.9 4.3 0.00 0.01 0.00 37 1013.3
20260503131030 63 302 0.9 4.3 0.00 0.01 0.00 36 1013.3
20260503130840 63 340 0.9 4.3 0.00 0.01 0.00 36 1013.4
20260503130821 63 346 0.0 4.3 0.00 0.01 0.00 37 1013.3
20260503130742 63 20 0.0 4.3 0.00 0.01 0.00 37 1013.4
20260503130353 62 85 0.0 4.3 0.00 0.01 0.00 37 1013.4
20260503130335 62 1 0.0 4.3 0.00 0.01 0.00 37 1013.4
20260503120219 60 99 0.9 5.2 0.00 0.01 0.00 40 1013.9
20260503110806 61 114 0.0 4.3 0.00 0.01 0.00 44 1014.2
20260503110606 61 275 0.0 4.3 0.00 0.01 0.00 44 1014.2
20260503110404 60 94 0.0 4.3 0.00 0.01 0.00 44 1014.2
20260503110305 60 113 0.0 4.3 0.00 0.01 0.00 44 1014.2
20260503110207 60 10 0.0 4.3 0.00 0.01 0.00 44 1014.1
20260503100217 58 71 0.0 4.3 0.00 0.01 0.00 48 1014.8
20260503100124 58 31 0.0 4.3 0.00 0.01 0.00 48 1014.8
20260503090503 55 32 0.9 7.0 0.00 0.01 0.00 56 1015.5
20260503090438 55 75 0.9 7.0 0.00 0.01 0.00 57 1015.4
20260503081137 51 269 2.6 7.8 0.00 0.01 0.00 69 1015.5
20260503080936 51 203 2.6 7.8 0.00 0.02 0.00 70 1015.5
20260503080804 51 99 3.5 7.8 0.00 0.02 0.00 70 1015.4
20260503080736 51 76 3.5 7.8 0.00 0.02 0.00 70 1015.4
20260503080533 51 159 2.6 7.8 0.00 0.02 0.00 70 1015.4
20260503080334 51 144 1.7 7.8 0.00 0.02 0.00 70 1015.4
20260503080304 51 144 2.6 7.8 0.00 0.02 0.00 71 1015.4
20260503080133 51 155 2.6 13.0 0.00 0.02 0.00 72 1015.4
20260503072910 52 65 0.9 7.0 0.00 0.02 0.00 73 1015.1
20260503072852 52 96 0.9 7.0 0.00 0.02 0.00 73 1015.1
20260503072756 52 59 0.9 7.0 0.00 0.02 0.00 73 1015.0
20260503072436 52 122 0.9 6.1 0.00 0.02 0.00 73 1015.0
20260503072046 53 1 0.9 6.1 0.00 0.02 0.00 75 1015.0
20260503072000 53 72 0.9 6.1 0.00 0.02 0.00 75 1015.1
20260503071628 53 122 0.9 6.1 0.00 0.02 0.00 76 1014.9
20260503071536 53 88 0.0 6.1 0.00 0.02 0.00 78 1014.9
20260503071134 53 111 0.0 6.1 0.00 0.02 0.00 78 1014.9
20260503071008 53 126 0.0 6.1 0.00 0.02 0.00 78 1014.9
20260503070925 53 122 0.0 0.0 0.00 0.02 0.00 78 1014.9
20260503070911 53 97 0.0 0.0 0.00 0.02 0.00 78 1014.9
20260503070519 53 65 0.0 0.0 0.00 0.02 0.00 78 1014.9
20260503070455 53 65 0.0 0.0 0.00 0.02 0.00 77 1014.8
20260503060252 52 340 2.6 7.0 0.00 0.02 0.00 66 1014.0
20260503055046 51 318 2.6 7.8 0.00 0.02 0.00 70 1013.9
20260503054715 51 331 2.6 7.8 0.00 0.02 0.00 71 1013.8
20260503054514 51 351 2.6 7.8 0.00 0.02 0.00 72 1013.8
20260503054317 51 321 1.7 7.8 0.00 0.02 0.00 74 1013.7
20260503054305 51 332 1.7 7.8 0.00 0.02 0.00 74 1013.7
20260503054116 51 295 1.7 7.0 0.00 0.02 0.00 76 1013.7
20260503053924 50 317 1.7 7.0 0.00 0.02 0.00 78 1013.7
20260503053847 50 323 0.9 5.2 0.00 0.02 0.00 79 1013.7
20260503053818 50 297 0.9 5.2 0.00 0.02 0.00 80 1013.7
20260503053358 50 327 0.9 4.3 0.00 0.02 0.00 82 1013.6
20260503053348 50 286 0.9 4.3 0.00 0.02 0.00 82 1013.7
20260503053254 50 318 0.9 4.3 0.00 0.02 0.00 83 1013.7
20260503053201 50 335 0.9 3.5 0.00 0.02 0.00 83 1013.6
20260503052819 50 311 0.0 3.5 0.00 0.02 0.00 84 1013.6
20260503052305 49 286 0.0 0.0 0.00 0.02 0.00 85 1013.7
20260503052141 49 166 0.0 0.0 0.00 0.02 0.00 85 1013.7
20260503052045 49 76 0.0 0.0 0.00 0.02 0.00 85 1013.6
20260503051714 49 76 0.0 0.0 0.00 0.02 0.00 85 1013.6
20260503051614 49 77 0.0 0.0 0.00 0.02 0.00 85 1013.6
20260503051304 49 77 0.0 0.0 0.00 0.02 0.00 84 1013.6
20260503051110 49 77 0.0 0.0 0.00 0.02 0.00 84 1013.6
20260503050910 49 76 0.0 0.0 0.00 0.02 0.00 84 1013.6
20260503050803 49 77 0.0 0.0 0.00 0.02 0.00 84 1013.5
20260503050710 49 77 0.0 0.0 0.00 0.02 0.00 84 1013.5
20260503050610 49 77 0.0 0.0 0.00 0.02 0.00 84 1013.5
20260503050508 49 77 0.0 0.0 0.00 0.02 0.00 84 1013.6
20260503050114 49 77 0.0 0.0 0.00 0.02 0.00 83 1013.7
20260503045708 49 77 0.0 0.0 0.00 0.02 0.00 83 1013.7
20260503045509 49 38 0.0 0.0 0.00 0.02 0.00 83 1013.7
20260503045305 49 38 0.0 0.0 0.00 0.02 0.00 83 1013.7
20260503045108 49 38 0.0 0.0 0.00 0.02 0.00 83 1013.7
20260503044909 49 38 0.0 0.0 0.00 0.02 0.00 83 1013.7
20260503044837 49 38 0.0 0.0 0.00 0.02 0.00 83 1013.6
20260503044807 49 38 0.0 0.0 0.00 0.02 0.00 82 1013.7
20260503044305 49 131 0.0 0.0 0.00 0.02 0.00 81 1013.6
20260503044111 49 288 0.0 0.0 0.00 0.02 0.00 81 1013.6
20260503044018 49 288 0.0 0.0 0.00 0.02 0.00 81 1013.5
20260503043951 49 288 0.0 0.0 0.00 0.02 0.00 81 1013.5
20260503043505 49 288 0.0 0.0 0.00 0.02 0.00 80 1013.5
20260503043315 49 288 0.0 0.0 0.00 0.02 0.00 80 1013.5
20260503043304 49 288 0.0 0.0 0.00 0.02 0.00 80 1013.5
20260503043108 49 288 0.0 0.0 0.00 0.02 0.00 80 1013.5
20260503042903 49 269 0.0 0.0 0.00 0.02 0.00 80 1013.5
20260503042802 49 234 0.0 0.0 0.00 0.02 0.00 80 1013.5
20260503042703 49 196 0.0 0.0 0.00 0.02 0.00 80 1013.5
20260503042509 49 196 0.0 0.0 0.00 0.02 0.00 80 1013.5
20260503042413 49 55 0.0 0.0 0.00 0.02 0.00 80 1013.6
20260503042408 49 55 0.0 0.0 0.00 0.02 0.00 80 1013.6
20260503041859 49 55 0.0 0.0 0.00 0.02 0.00 80 1013.5
20260503041802 49 55 0.0 0.0 0.00 0.02 0.00 80 1013.5
20260503041700 49 55 0.0 0.0 0.00 0.02 0.00 80 1013.4
20260503041454 49 51 0.0 0.0 0.00 0.02 0.00 80 1013.4
20260503041305 49 51 0.0 0.0 0.00 0.02 0.00 80 1013.5
20260503041251 49 51 0.0 0.0 0.00 0.02 0.00 80 1013.5
20260503041112 49 51 0.0 0.0 0.00 0.02 0.00 80 1013.5
20260503041012 49 150 0.0 0.0 0.00 0.02 0.00 79 1013.4
20260503040950 49 151 0.0 0.0 0.00 0.02 0.00 79 1013.4
20260503040914 49 151 0.0 0.0 0.00 0.02 0.00 79 1013.4
20260503040532 49 151 0.0 0.0 0.00 0.02 0.00 79 1013.3
20260503040522 49 151 0.0 0.0 0.00 0.02 0.00 79 1013.3
20260503040429 49 151 0.0 0.0 0.00 0.02 0.00 79 1013.2
20260503040109 49 151 0.0 0.0 0.00 0.02 0.00 79 1013.2
20260503035305 49 151 0.0 4.3 0.00 0.02 0.00 79 1013.1
20260503035240 49 151 0.0 4.3 0.00 0.02 0.00 79 1013.1
20260503035039 49 151 0.0 4.3 0.00 0.02 0.00 79 1013.0
20260503034836 49 151 0.9 4.3 0.00 0.02 0.00 79 1013.0
20260503034802 49 151 0.9 4.3 0.00 0.02 0.00 79 1013.0
20260503034643 49 151 0.9 4.3 0.00 0.02 0.00 79 1013.0
20260503034550 49 151 1.7 4.3 0.00 0.02 0.00 79 1012.9
20260503034235 49 151 1.7 5.2 0.00 0.02 0.00 79 1012.9
20260503034131 49 181 2.6 5.2 0.00 0.02 0.00 79 1012.9
20260503034040 49 232 2.6 5.2 0.00 0.02 0.00 79 1012.8
20260503034021 49 232 2.6 5.2 0.00 0.02 0.00 79 1012.9
20260503033939 49 223 2.6 5.2 0.00 0.02 0.00 79 1012.8
20260503033842 49 228 2.6 5.2 0.00 0.02 0.00 79 1012.8
20260503033214 49 217 2.6 5.2 0.00 0.02 0.00 79 1012.8
20260503033117 49 227 1.7 5.2 0.00 0.02 0.00 80 1012.8
20260503033057 49 237 1.7 5.2 0.00 0.02 0.00 80 1012.8
20260503032304 49 257 2.6 6.1 0.00 0.02 0.00 80 1012.7
20260503032231 49 250 2.6 7.0 0.00 0.02 0.00 80 1012.7
20260503032033 49 233 3.5 7.0 0.00 0.02 0.00 80 1012.7
20260503031831 49 221 3.5 7.0 0.00 0.02 0.00 80 1012.6
20260503031804 49 205 3.5 7.0 0.00 0.02 0.00 80 1012.6
20260503031630 49 238 3.5 7.0 0.00 0.02 0.00 80 1012.5
20260503031434 49 198 2.6 7.0 0.00 0.02 0.00 80 1012.6
20260503031303 49 248 2.6 7.0 0.00 0.02 0.00 80 1012.5
20260503031231 49 240 2.6 7.0 0.00 0.02 0.00 80 1012.5
20260503031032 49 240 2.6 7.0 0.00 0.02 0.00 80 1012.4
20260503030837 49 234 2.6 7.0 0.00 0.02 0.00 80 1012.4
20260503030819 49 237 2.6 7.0 0.00 0.02 0.00 80 1012.4
20260503030632 49 247 2.6 7.0 0.00 0.02 0.00 80 1012.4
20260503030433 49 207 3.5 7.0 0.00 0.02 0.00 80 1012.5
20260503030302 49 223 2.6 6.1 0.00 0.02 0.00 80 1012.5
20260503030232 49 242 2.6 6.1 0.00 0.02 0.00 80 1012.5
20260503030031 49 209 3.5 6.1 0.00 0.02 0.00 81 1012.5
20260503025832 49 234 3.5 6.1 0.00 0.02 0.00 81 1012.6
20260503025805 49 240 3.5 6.1 0.00 0.02 0.00 81 1012.5
20260503025631 49 230 3.5 6.1 0.00 0.02 0.00 81 1012.6
20260503025431 49 237 3.5 6.1 0.00 0.02 0.00 81 1012.6
20260503025304 49 237 3.5 6.1 0.00 0.02 0.00 81 1012.6
20260503025233 49 236 3.5 6.1 0.00 0.02 0.00 81 1012.6
20260503025033 49 243 3.5 6.1 0.00 0.02 0.00 81 1012.6
20260503024846 49 235 3.5 6.1 0.00 0.02 0.00 81 1012.6
20260503024829 49 237 3.5 7.0 0.00 0.02 0.00 81 1012.6
20260503024741 49 230 3.5 7.0 0.00 0.02 0.00 81 1012.6
20260503024638 49 202 3.5 7.0 0.00 0.02 0.00 82 1012.7
20260503024601 49 229 2.6 7.0 0.00 0.02 0.00 82 1012.7
20260503023820 49 234 2.6 7.0 0.00 0.02 0.00 82 1012.8
20260503023805 49 223 2.6 6.1 0.00 0.02 0.00 82 1012.8
20260503023621 49 240 2.6 6.1 0.00 0.02 0.00 82 1012.8
20260503023418 49 235 2.6 6.1 0.00 0.02 0.00 82 1012.8
20260503023302 49 231 2.6 6.1 0.00 0.02 0.00 82 1012.8
20260503023219 49 231 2.6 6.1 0.00 0.02 0.00 82 1012.8
20260503023021 49 250 2.6 6.1 0.00 0.02 0.00 83 1012.8
20260503022818 49 230 1.7 5.2 0.00 0.02 0.00 83 1012.8
20260503022805 49 225 1.7 5.2 0.00 0.02 0.00 83 1012.7
20260503022619 49 205 1.7 5.2 0.00 0.02 0.00 83 1012.8
20260503022416 49 238 0.9 5.2 0.00 0.02 0.00 83 1012.7
20260503022304 49 234 0.9 5.2 0.00 0.02 0.00 83 1012.9
20260503022218 49 247 0.9 5.2 0.00 0.02 0.00 83 1012.9
20260503022015 49 257 0.9 3.5 0.00 0.02 0.00 83 1012.9
20260503021816 49 268 1.7 5.2 0.00 0.02 0.00 83 1012.9
20260503021805 49 268 0.9 5.2 0.00 0.02 0.00 83 1013.0
20260503021615 49 268 0.9 5.2 0.00 0.02 0.00 83 1012.9
20260503021414 49 230 1.7 5.2 0.00 0.02 0.00 82 1012.9
20260503021303 49 230 0.9 5.2 0.00 0.02 0.00 82 1013.0
20260503021212 49 259 0.9 5.2 0.00 0.02 0.00 82 1013.0
20260503021013 49 243 0.9 5.2 0.00 0.02 0.00 82 1013.0
20260503020817 49 271 0.9 5.2 0.00 0.02 0.00 82 1013.0
20260503020805 49 282 0.9 5.2 0.00 0.02 0.00 82 1013.1
20260503020616 49 260 0.0 5.2 0.00 0.02 0.00 82 1013.0
20260503020500 49 234 0.0 3.5 0.00 0.02 0.00 82 1013.0
20260503020429 49 233 0.0 3.5 0.00 0.02 0.00 81 1013.0
20260503020404 49 280 0.0 3.5 0.00 0.02 0.00 82 1013.0
20260503020310 49 288 0.0 1.7 0.00 0.02 0.00 82 1013.0
20260503020214 49 256 0.0 3.5 0.00 0.02 0.00 82 1012.9
20260503015918 49 256 0.0 3.5 0.00 0.02 0.00 82 1013.0
20260503015211 49 207 0.0 3.5 0.00 0.04 0.00 81 1012.8
20260503015117 50 240 0.0 3.5 0.00 0.04 0.00 82 1012.8
20260503014806 50 270 0.0 0.0 0.00 0.04 0.00 81 1012.8
20260503014608 50 270 0.0 0.0 0.00 0.04 0.00 81 1012.9
20260503014433 50 270 0.0 0.0 0.00 0.04 0.00 81 1013.0
20260503014404 50 270 0.0 0.0 0.00 0.04 0.00 81 1012.9
20260503014331 50 270 0.0 0.0 0.00 0.04 0.00 81 1013.1
20260503014241 50 271 0.0 0.0 0.00 0.04 0.00 81 1013.1
20260503013934 50 271 0.0 0.0 0.00 0.04 0.00 81 1013.1
20260503013848 50 271 0.0 0.0 0.00 0.04 0.00 81 1013.2
20260503013207 50 271 0.0 0.0 0.00 0.04 0.00 81 1013.1
20260503013008 49 271 0.0 0.0 0.00 0.04 0.00 81 1013.0
20260503012806 50 271 0.0 0.0 0.00 0.04 0.00 81 1013.0
20260503012606 50 271 0.0 0.0 0.00 0.04 0.00 81 1013.1
20260503012408 50 271 0.0 0.0 0.00 0.04 0.00 81 1013.1
20260503012331 50 271 0.0 0.0 0.00 0.04 0.00 81 1013.1
20260503012306 50 271 0.0 0.0 0.00 0.04 0.00 81 1013.1
20260503012208 50 271 0.0 0.0 0.00 0.04 0.00 81 1013.1
20260503012118 50 272 0.0 0.0 0.00 0.04 0.00 81 1013.1
20260503011409 50 272 0.0 0.0 0.00 0.04 0.00 82 1013.2
20260503011301 50 272 0.0 0.0 0.00 0.04 0.00 82 1013.2
20260503011219 50 271 0.0 0.0 0.00 0.04 0.00 82 1013.3
20260503011120 50 272 0.0 0.0 0.00 0.05 0.00 82 1013.2
20260503011018 50 272 0.0 0.0 0.00 0.05 0.00 82 1013.2
20260503010610 49 272 0.0 0.0 0.00 0.05 0.00 82 1013.2
20260503010510 49 272 0.0 0.0 0.00 0.05 0.00 82 1013.2
20260503010443 49 272 0.0 0.0 0.00 0.05 0.00 82 1013.2
20260503010008 49 272 0.0 0.0 0.00 0.05 0.00 82 1013.3
20260503005805 49 272 0.0 0.0 0.00 0.05 0.00 82 1013.2
20260503005703 49 275 0.0 1.7 0.00 0.05 0.00 82 1013.2
20260503005541 49 275 0.9 2.6 0.00 0.05 0.00 82 1013.2
20260503005217 49 275 0.9 2.6 0.00 0.05 0.00 82 1013.2
20260503005119 49 275 0.9 2.6 0.00 0.05 0.00 82 1013.2
20260503005018 49 275 0.9 2.6 0.00 0.05 0.00 82 1013.2
20260503004606 49 273 0.0 2.6 0.00 0.05 0.00 83 1013.2
20260503004406 49 273 0.9 3.5 0.00 0.06 0.00 83 1013.1
20260503004304 49 273 0.9 3.5 0.00 0.06 0.00 83 1013.1
20260503004207 49 273 0.9 3.5 0.00 0.06 0.00 83 1013.1
20260503004021 49 272 0.9 3.5 0.00 0.07 0.00 83 1013.1
20260503003917 49 272 0.9 3.5 0.00 0.07 0.00 83 1013.1
20260503003517 49 251 0.9 3.5 0.00 0.08 0.00 83 1013.2
20260503003448 49 236 0.0 3.5 0.00 0.10 0.00 83 1013.2
20260503003008 49 273 0.0 2.6 0.00 0.11 0.00 83 1013.2
20260503002805 49 273 0.0 2.6 0.00 0.12 0.00 83 1013.2
20260503002606 49 273 0.0 2.6 0.00 0.13 0.00 83 1013.2
20260503002406 49 241 0.0 2.6 0.00 0.13 0.00 82 1013.3
20260503002305 49 239 0.0 2.6 0.00 0.13 0.00 82 1013.3
20260503002211 49 236 0.0 0.0 0.00 0.14 0.00 82 1013.3
20260503002118 49 236 0.0 0.0 0.00 0.14 0.00 82 1013.3
20260503002020 49 275 0.0 0.0 0.00 0.14 0.00 81 1013.3
20260503001716 49 192 0.0 0.0 0.00 0.16 0.00 81 1013.4
20260503001338 50 176 0.0 0.0 0.00 0.16 0.00 81 1013.4
20260503001315 50 176 0.0 0.0 0.00 0.16 0.00 81 1013.5
20260503000815 50 66 0.0 0.0 0.00 0.16 0.00 81 1013.4
20260503000805 50 65 0.0 0.0 0.00 0.16 0.00 81 1013.4
20260503000643 50 65 0.0 0.0 0.00 0.16 0.00 80 1013.5
20260503000538 50 66 0.0 0.0 0.00 0.16 0.00 80 1013.5
20260503000203 50 66 0.0 0.0 0.00 0.16 0.00 80 1013.6
20260503000001 50 65 0.0 0.0 0.00 0.16 0.00 80 1013.5
20260502235812 50 66 0.0 0.0 0.00 0.16 0.00 79 1013.6
20260502235759 50 65 0.0 0.0 0.00 0.16 0.00 79 1013.6
20260502235557 51 67 0.0 0.0 0.00 0.16 0.00 79 1013.5
20260502235401 51 67 0.0 0.0 0.00 0.16 0.00 79 1013.5
20260502235332 51 67 0.0 0.0 0.00 0.16 0.00 78 1013.4
20260502235304 51 67 0.0 0.0 0.00 0.16 0.00 78 1013.4
20260502234813 51 67 0.0 0.9 0.00 0.16 0.00 77 1013.5
20260502234753 51 67 0.0 0.9 0.00 0.16 0.00 77 1013.5
20260502234549 51 67 0.0 0.9 0.00 0.16 0.00 77 1013.5
20260502234350 52 67 0.0 4.3 0.00 0.16 0.00 76 1013.5
20260502234302 52 66 0.0 4.3 0.00 0.16 0.00 76 1013.5
20260502234202 52 66 0.0 4.3 0.00 0.16 0.00 75 1013.5
20260502234100 52 75 0.0 4.3 0.00 0.16 0.00 74 1013.5
20260502233750 52 103 0.0 4.3 0.00 0.16 0.00 74 1013.5
20260502233643 52 32 0.0 4.3 0.00 0.16 0.00 74 1013.6
20260502233534 52 88 0.0 2.6 0.00 0.16 0.00 72 1013.6
20260502233150 52 199 0.0 4.3 0.00 0.16 0.00 72 1013.5
20260502233049 52 200 0.0 4.3 0.00 0.16 0.00 72 1013.5
20260502233006 52 200 0.0 4.3 0.00 0.16 0.00 71 1013.5
20260502232543 52 213 0.0 4.3 0.00 0.16 0.00 71 1013.6
20260502232341 52 222 0.0 4.3 0.00 0.16 0.00 72 1013.5
20260502232301 52 221 0.0 4.3 0.00 0.16 0.00 72 1013.6
20260502232141 52 296 0.0 0.0 0.00 0.16 0.00 72 1013.7
20260502231941 53 351 0.0 0.0 0.00 0.16 0.00 72 1013.7
20260502231854 53 196 0.0 0.0 0.00 0.16 0.00 72 1013.7
20260502231842 53 196 0.0 0.0 0.00 0.16 0.00 72 1013.7
20260502231336 53 196 0.0 2.6 0.00 0.16 0.00 72 1013.6
20260502231302 53 196 0.0 3.5 0.00 0.16 0.00 72 1013.6
20260502231154 53 207 0.0 3.5 0.00 0.16 0.00 72 1013.5
20260502231051 53 273 0.9 6.1 0.00 0.17 0.00 72 1013.6
20260502230738 52 273 0.9 6.1 0.00 0.17 0.00 71 1013.5
20260502230642 52 273 0.9 6.1 0.00 0.17 0.00 71 1013.6
20260502230310 52 282 1.7 7.0 0.00 0.17 0.00 72 1013.6
20260502230223 52 256 1.7 7.0 0.00 0.17 0.00 72 1013.6
20260502230116 52 271 0.9 7.0 0.00 0.17 0.00 72 1013.6